Regional Weather Roundup
Issued by NWS Sioux Falls, SD

Home | Current Version | Previous Version | Graphics & Text | Print | Product List | Glossary Off
Versions: 1 2 3 4 5 6 7 8 9 10 11 12 13 14 15 16 17 18 19 20 21 22 23 24 25 26 27 28 29 30 31 32 33 34 35 36 37 38 39 40 41 42 43 44 45 46 47 48 49 50

000
ASUS43 KFSD 300602
RWRFSD

WEATHER ROUNDUP FOR SE SOUTH DAKOTA/SW MINNESOTA/NW IOWA
NATIONAL WEATHER SERVICE SIOUX FALLS SD
100 AM CDT THU JUL 30 2015

NOTE: "FAIR" INDICATES FEW OR NO CLOUDS BELOW 12,000 FEET WITH NO
SIGNIFICANT WEATHER AND OR OBSTRUCTIONS TO VISIBILITY.


SDZ038>040-050-052>070-300700-
SOUTHEAST SOUTH DAKOTA

CITY           SKY/WX    TMP DP  RH WIND       PRES   REMARKS
BROOKINGS      CLEAR     61  54  77 CALM      30.12S
CHAMBERLAIN    MOCLDY    64  57  79 CALM      30.13S
6HR MIN TEMP:  61; 6HR MAX TEMP:  83;

HURON          CLEAR     65  56  72 CALM      30.09S
6HR MIN TEMP:  64; 6HR MAX TEMP:  83;

MADISON        FAIR      64  55  72 W5        30.12S
MITCHELL       CLEAR     64  57  78 SW5       30.11S
6HR MIN TEMP:  64; 6HR MAX TEMP:  84;

SIOUX FALLS    PTCLDY    63  58  83 SW5       30.12R
6HR MIN TEMP:  62; 6HR MAX TEMP:  82;

WINNER         FAIR      72  48  42 S8        30.16R
YANKTON        CLEAR     66  55  68 SW8       30.11S
$$

MNZ071-072-080-081-089-090-097-098-300700-
SOUTHWEST MINNESOTA

CITY           SKY/WX    TMP DP  RH WIND       PRES   REMARKS
FAIRMONT       CLEAR     64  55  72 SW7       30.09R
JACKSON        CLEAR     64  55  72 SW6       30.12R
LUVERNE        CLEAR     59  55  88 SW3       30.13R
MARSHALL       CLEAR     63  54  72 W8        30.08S
6HR MIN TEMP:  63; 6HR MAX TEMP:  81;

MONTEVIDEO     CLEAR     63  52  67 W3        30.06S
PIPESTONE      CLEAR     63  55  77 CALM      30.12S
REDWOOD FALLS  CLEAR     68  55  63 W10       30.05R
TRACY          CLEAR     64  57  77 SW8       30.10R
WINDOM         CLEAR     61  55  82 CALM      30.11R
WORTHINGTON    CLEAR     63  54  72 SW7       30.12S
$$

IAZ001>003-012>014-020>022-031-032-NEZ013-014-SDZ071-300700-
NORTHWEST IOWA

CITY           SKY/WX    TMP DP  RH WIND       PRES   REMARKS
DENISON        CLEAR     64  61  88 W3        30.14S
ESTHERVILLE    CLEAR     59  57  93 SW6       30.11R
SIOUX CITY     CLEAR     68  59  73 SW10      30.13S
6HR MIN TEMP:  67; 6HR MAX TEMP:  82;

SPENCER        CLEAR     61  57  87 CALM      30.13R
6HR MIN TEMP:  60; 6HR MAX TEMP:  81;

$$

ABBREVIATIONS USED IN REMARKS
   TC - TEMPERATURE IN CELSIUS
  WCI - WIND CHILL INDEX
   HX - HEAT INDEX
  VSB - VISIBILITY




USA.gov is the U.S. government's official web portal to all federal, state and local government web resources and services.